Theta_e
319 319 318 318 317 316 316 316 315 315 315 315 315 315 315 315 315 316 316 316 316 316 316 317 318 320 321 316 315 330 344 333 323 325 321 318 314 314 311 313 313 312 313 315 318 316 318
319 318 318 317 316 316 315 315 314 315 315 315 314 314 314 313 314 315 315 315 315 315 316 318 319 320 318 310 322 327 332 322 321 321 320 318 316 318 315 313 312 314 312 314 316 316 318
318 317 317 316 315 314 314 314 314 314 314 314 314 314 313 313 314 314 314 314 314 315 320 321 320 323 318 315 322 327 329 321 323 321 319 319 321 317 317 313 317 314 311 313 314 315 315
319 317 316 315 314 313 313 313 313 313 313 313 313 313 312 313 313 314 314 314 314 317 320 320 322 323 314 323 325 322 327 322 324 324 320 323 323 319 317 318 314 311 312 307 312 314 315
316 316 315 314 313 312 312 312 312 311 312 312 312 312 312 312 313 313 313 313 314 322 321 322 322 321 313 320 317 321 326 320 320 321 322 322 321 316 316 311 308 309 305 306 310 315 315
314 313 313 312 312 311 311 311 311 310 311 311 311 311 311 312 312 312 311 312 320 320 322 324 321 314 315 313 318 319 325 324 317 318 318 317 316 312 312 309 302 305 305 308 309 313 314
312 311 311 312 311 311 310 310 310 310 310 310 310 310 311 311 311 310 312 321 319 318 321 315 313 310 312 319 321 318 323 322 317 316 310 314 309 307 309 311 311 309 308 307 310 314 313
311 311 311 311 311 310 310 310 310 309 310 310 309 309 311 311 311 310 313 316 310 311 307 317 317 315 314 318 313 315 323 316 313 309 312 311 307 312 312 311 309 308 307 307 311 313 312
311 311 310 310 310 309 309 309 309 309 310 310 310 310 311 310 309 313 313 312 314 316 309 312 316 315 314 315 312 313 319 317 312 309 310 308 311 313 310 309 307 307 306 306 307 311 313
311 310 310 310 309 309 309 309 308 309 309 310 309 310 310 309 309 313 313 316 315 319 304 308 310 314 317 313 308 318 319 316 313 309 310 310 313 310 309 307 308 304 310 308 307 306 303
310 311 310 310 310 310 309 308 308 308 308 309 309 309 309 307 310 310 311 314 315 319 295 310 310 320 317 311 310 311 320 316 310 310 311 308 309 309 307 307 310 307 312 309 308 307 307
309 310 310 309 308 309 309 309 308 308 309 309 309 309 309 312 312 313 314 314 315 303 295 306 310 308 310 312 310 313 313 317 316 311 311 310 315 312 310 311 311 312 310 310 309 307 300
309 310 308 307 308 309 309 308 308 308 309 309 308 308 307 309 309 313 313 310 301 296 306 304 305 309 309 308 308 310 308 308 307 303 305 308 309 312 312 308 312 311 308 301 299 299 298
308 309 309 308 309 308 308 308 308 308 308 308 307 306 311 312 315 314 311 303 295 302 304 309 308 308 306 309 308 309 307 305 310 309 306 303 301 308 312 310 308 308 308 302 296 298 300
306 307 308 307 307 307 308 308 308 307 307 306 305 312 312 314 314 312 305 295 298 303 306 304 306 305 305 308 308 308 307 306 309 310 305 304 303 311 312 312 312 309 305 311 306 307 302
306 305 307 307 306 306 307 308 308 307 307 306 305 307 310 316 315 309 300 295 301 307 306 305 302 306 303 306 305 306 307 310 308 312 314 309 303 309 310 312 312 310 313 304 305 298 296
306 306 305 307 307 307 307 307 307 307 306 304 306 303 312 316 315 304 295 298 301 306 308 304 303 303 305 307 307 305 306 310 312 311 313 311 308 307 309 306 306 307 306 309 309 306 299
306 305 306 306 306 308 307 308 307 307 305 304 305 298 314 315 302 303 298 301 301 304 308 306 305 306 305 307 307 306 306 309 313 313 308 312 310 305 305 311 311 311 308 309 303 302 305
306 305 306 306 307 308 308 307 307 307 306 303 301 303 313 312 297 299 304 302 303 303 304 304 303 304 307 305 304 308 309 312 312 311 310 312 307 301 304 308 310 308 310 311 311 311 305
305 305 306 306 305 306 307 307 306 307 305 303 301 296 303 306 305 303 303 303 300 304 304 306 305 306 303 303 308 307 309 311 312 311 318 316 310 306 301 305 309 306 307 309 309 304 305
305 305 305 305 305 305 305 305 306 306 305 303 301 298 302 298 301 302 303 306 301 300 304 306 304 303 302 300 304 305 310 312 312 310 314 315 307 308 308 309 309 308 307 307 307 308 305
304 304 305 305 304 305 305 305 305 307 305 302 298 298 302 300 302 303 300 301 302 302 303 301 302 303 304 302 304 305 309 311 311 313 312 315 308 309 305 308 308 306 308 309 309 309 309
303 303 304 304 304 305 305 305 305 306 304 302 304 305 299 296 298 298 301 302 303 306 306 306 306 305 304 305 307 312 317 318 316 313 313 312 309 307 302 307 306 302 306 308 309 310 309
303 303 304 304 304 304 305 305 305 307 304 300 301 300 296 293 295 295 299 302 303 306 305 306 308 308 310 319 317 311 313 317 318 316 318 313 313 310 304 305 296 307 313 312 310 311 312
303 303 303 304 304 304 305 305 305 306 307 302 301 300 296 291 294 295 299 301 305 307 306 307 308 312 319 316 309 305 307 310 312 314 316 318 314 306 302 302 304 307 311 311 309 309 314
303 303 303 303 303 304 304 304 304 303 305 303 300 303 298 292 293 298 298 301 300 303 304 307 312 315 315 310 306 300 299 304 303 308 316 316 317 309 304 298 297 308 314 316 315 304 315
302 302 302 303 303 304 304 304 304 304 304 304 304 309 299 292 295 297 297 298 304 304 303 307 308 309 315 307 302 301 300 307 301 303 305 308 309 306 303 302 304 313 313 314 303 306 315
302 302 302 302 303 303 304 304 304 304 303 303 302 308 301 294 296 297 299 301 303 304 301 305 306 308 309 305 304 302 302 304 304 307 306 304 303 303 304 301 298 316 314 308 316 319 317
302 302 302 301 302 303 304 303 303 304 303 303 300 307 306 297 297 301 302 304 304 306 302 306 305 310 311 308 309 309 305 308 306 299 311 303 308 305 306 306 319 319 317 322 322 318 318
Wind_Speed
13 14 15 16 16 16 16 16 16 18 18 19 20 21 22 22 22 21 20 20 21 20 17 14 11 9 8 10 14 13 10 10 14 15 16 14 15 15 16 13 15 13 20 12 10 8 8
11 13 14 15 16 15 17 17 17 17 17 18 19 21 22 23 23 22 22 21 20 19 16 12 9 6 11 15 7 6 9 16 17 16 15 13 12 12 11 12 11 12 18 10 14 14 12
9 11 13 13 14 16 17 17 18 18 18 18 19 20 22 23 23 23 23 22 21 19 15 8 8 8 12 13 2 6 12 17 16 16 14 15 9 6 12 9 10 6 12 13 16 15 11
12 9 11 13 14 15 16 16 18 19 20 19 19 20 22 24 24 24 25 23 21 15 7 5 8 11 10 3 5 8 13 15 14 13 13 8 8 13 9 6 6 15 15 18 20 13 9
11 12 12 13 13 14 15 16 17 19 20 20 20 21 23 25 25 25 25 24 19 11 4 7 9 11 14 6 11 14 14 14 11 10 7 2 11 15 13 12 14 13 15 16 14 14 14
10 11 12 12 13 14 15 16 17 19 20 21 21 22 23 25 26 26 27 22 4 3 7 9 10 8 12 13 13 15 14 14 15 15 12 13 10 12 13 14 14 15 15 16 9 12 13
9 10 11 12 13 14 15 16 18 18 19 21 22 22 24 26 27 27 17 6 8 9 15 14 6 14 3 5 4 13 16 15 16 16 17 17 14 15 18 16 18 11 12 16 6 10 11
9 9 10 12 12 14 16 17 18 19 20 21 23 24 25 27 27 28 12 6 7 8 12 18 21 16 4 4 11 16 18 19 16 19 19 14 17 17 15 5 7 11 14 13 7 9 9
10 9 10 10 12 14 15 17 18 19 19 20 21 22 24 28 29 14 7 6 8 8 9 14 21 22 19 14 14 18 22 22 19 21 20 20 11 20 7 10 13 15 15 14 14 12 12
9 9 10 10 11 13 15 17 18 18 19 20 21 21 23 31 11 12 3 4 9 5 8 12 11 10 22 16 15 17 21 22 14 21 22 19 18 8 11 15 14 15 15 16 13 14 12
9 10 10 11 12 12 14 16 18 19 19 19 20 20 19 16 13 8 9 10 10 5 8 10 11 6 13 21 8 24 21 24 22 19 16 17 17 15 15 16 14 13 8 11 15 14 15
10 10 8 10 12 13 12 15 18 18 19 20 21 20 19 6 9 12 10 11 7 9 12 9 9 12 16 23 16 20 21 25 18 18 18 20 12 13 16 14 13 8 7 12 14 14 15
10 10 9 10 11 11 11 13 16 18 20 21 23 23 16 10 6 7 10 8 8 12 6 10 9 15 18 19 21 18 24 26 21 19 19 16 20 13 14 17 12 11 12 9 10 12 13
10 11 10 10 11 11 10 12 14 17 19 22 24 29 10 10 8 7 8 9 14 9 22 4 4 13 18 17 23 21 22 22 26 23 16 16 18 21 14 19 16 17 16 11 9 12 13
10 12 11 10 11 13 12 13 14 15 18 22 30 10 9 9 8 7 8 15 10 16 8 5 10 12 16 17 14 21 25 24 25 25 21 17 18 16 21 18 19 18 17 17 15 16 10
9 10 11 12 11 12 13 14 13 15 17 20 10 11 13 11 7 8 11 22 19 21 5 5 16 14 17 21 19 22 23 23 24 26 21 14 10 15 17 18 20 22 9 12 8 12 13
11 11 11 11 11 13 13 12 11 14 18 21 8 6 8 8 7 10 16 20 23 27 12 11 13 19 12 16 22 21 24 16 24 23 23 19 10 12 12 17 20 14 15 13 13 10 11
12 12 11 13 11 12 11 10 9 11 18 15 6 8 8 7 10 11 18 23 22 19 18 14 12 19 14 16 17 20 19 20 10 22 23 20 9 13 17 16 18 21 20 18 11 14 9
12 12 13 12 11 11 8 7 8 8 11 8 7 9 8 7 10 15 18 24 26 23 21 21 17 17 17 17 14 16 20 18 15 21 20 19 11 12 15 10 7 11 13 15 17 14 15
10 10 12 11 11 9 7 8 6 6 8 8 6 6 9 9 13 22 19 23 22 24 19 22 18 23 19 17 17 13 19 10 11 16 3 15 12 17 14 16 17 18 18 16 13 10 13
10 10 11 9 10 10 9 7 7 5 6 8 6 7 5 7 10 18 20 23 24 22 18 21 19 20 20 18 20 20 18 14 11 6 12 14 18 17 20 21 15 12 20 20 17 16 16
11 9 9 9 9 10 9 8 7 6 7 7 7 6 7 12 17 20 16 22 24 20 22 18 20 21 21 20 20 17 18 15 16 15 16 15 13 19 21 19 19 14 14 19 19 17 16
8 8 7 8 9 10 10 10 7 7 5 5 2 3 7 8 14 15 16 20 23 20 18 19 19 18 20 23 22 22 7 11 14 18 18 17 15 16 19 20 13 20 18 15 14 15 13
10 11 11 9 9 10 11 11 10 8 7 6 7 6 8 12 11 17 20 15 22 23 19 14 16 13 12 9 13 21 17 14 12 15 15 18 18 13 15 15 19 12 10 18 13 10 7
10 10 10 11 10 11 10 11 9 8 9 7 5 6 8 8 11 19 18 14 14 15 14 14 6 0 8 10 11 14 13 16 17 13 10 15 16 14 13 13 8 1 6 10 9 9 5
11 11 10 10 10 11 8 8 5 3 5 8 6 5 6 7 5 10 17 16 12 12 15 17 17 4 5 10 13 20 17 15 19 10 13 13 14 15 10 11 21 8 16 12 10 10 14
10 10 10 8 9 9 9 8 7 5 2 7 5 8 6 9 15 16 10 11 17 12 10 14 19 13 11 11 14 17 16 20 20 23 18 14 13 15 11 12 5 15 4 3 12 5 9
8 9 8 8 7 8 10 9 7 7 6 8 5 6 9 9 16 19 19 14 13 8 11 9 5 7 8 13 14 13 10 16 19 20 20 19 15 14 14 15 10 17 17 16 9 10 9
10 11 10 9 9 9 11 10 9 9 8 8 8 4 8 8 12 18 17 19 18 13 10 7 10 7 6 5 8 4 7 3 9 14 8 15 14 12 4 5 14 5 5 11 8 8 7
Wind_Direction
22 17 14 12 9 5 5 1 358 356 352 350 348 346 342 339 334 330 326 324 321 316 311 299 286 281 256 227 253 127 152 160 182 205 224 214 224 225 234 235 230 230 262 226 255 225 247
18 16 14 9 4 3 1 358 357 354 350 347 346 343 340 337 332 328 324 322 318 312 306 287 264 263 241 251 68 133 161 167 189 215 221 224 229 235 279 252 228 219 240 246 248 224 218
14 14 10 5 360 358 358 355 354 352 350 346 344 342 338 334 330 327 323 321 316 312 303 264 230 235 266 255 28 154 169 182 206 213 222 230 262 228 239 232 247 271 260 237 243 228 234
352 11 15 2 356 356 356 355 353 351 348 346 344 340 336 333 328 325 321 318 313 305 308 221 213 238 267 58 194 204 180 189 204 220 244 208 237 254 254 258 246 241 235 241 207 210 202
2 0 357 353 357 357 354 354 353 350 348 345 343 339 334 331 326 323 319 313 304 289 243 188 212 233 256 119 213 206 196 193 190 208 237 306 249 234 212 242 230 206 240 230 162 186 195
360 353 352 353 355 356 353 353 351 348 347 345 342 337 333 329 324 321 318 297 314 236 215 213 268 245 242 223 185 200 195 204 187 190 196 212 223 228 234 219 232 215 219 220 196 170 234
354 348 351 351 355 353 349 349 348 346 344 344 341 337 333 328 322 319 321 222 206 192 217 241 214 236 153 130 136 206 191 202 191 195 211 202 221 221 231 228 262 328 289 249 196 157 217
348 349 352 354 353 350 347 345 344 343 342 340 338 337 333 325 320 313 282 300 34 337 290 250 247 235 219 206 194 204 184 197 200 206 212 204 228 246 236 306 277 256 262 267 251 164 196
345 348 349 348 347 346 345 344 343 341 339 337 335 334 332 322 319 291 315 38 331 320 261 267 222 220 213 204 223 195 192 203 200 211 212 231 236 214 220 215 238 240 244 242 254 207 204
330 333 336 335 335 339 341 340 339 338 337 333 332 333 334 327 295 336 269 356 322 340 271 198 199 228 205 197 227 221 199 211 212 221 224 223 246 192 233 234 224 245 223 255 252 251 233
323 312 319 323 322 332 336 336 335 335 332 329 327 329 331 323 311 296 16 319 327 243 270 113 137 92 189 193 187 200 190 215 226 214 224 221 229 194 227 224 228 251 334 211 244 245 254
318 320 329 330 327 326 328 329 332 331 328 325 323 322 331 286 256 265 296 313 260 233 240 159 160 193 194 205 230 169 198 215 226 234 229 240 200 239 223 232 237 238 227 242 244 240 235
313 310 308 323 323 322 322 324 327 327 325 321 317 310 301 294 272 352 324 260 230 242 110 179 185 188 200 192 210 177 192 201 209 218 218 214 244 206 238 221 184 221 217 213 212 226 239
319 313 304 315 319 326 321 322 321 321 321 318 313 307 257 235 238 255 255 228 240 260 234 67 272 192 209 191 212 188 201 206 214 215 224 210 211 212 200 229 190 214 222 246 217 212 229
311 311 310 309 318 320 317 317 318 320 321 318 308 280 253 236 223 230 238 223 227 241 295 270 230 234 210 213 206 209 212 214 206 221 224 213 232 211 199 213 243 205 215 247 285 283 282
295 309 308 304 309 313 315 315 315 322 323 319 310 294 260 145 182 209 225 239 236 257 345 255 249 216 223 204 206 210 208 211 219 206 221 243 246 192 204 210 222 249 202 231 230 259 254
287 298 303 306 303 306 310 315 316 326 320 313 265 264 101 148 185 216 231 226 232 257 209 247 262 258 251 263 203 232 215 211 209 208 215 229 226 204 204 202 221 202 233 236 253 240 232
279 286 297 302 305 302 301 311 316 332 326 288 283 252 107 186 218 227 235 231 253 238 217 227 266 278 259 255 262 216 219 225 197 223 202 213 209 247 203 215 228 211 213 230 234 233 256
279 284 292 294 297 301 298 313 317 340 343 317 261 274 136 209 244 236 242 239 242 232 235 230 231 244 248 251 258 261 244 220 176 216 206 200 208 225 226 179 216 240 241 222 232 238 268
277 287 292 288 300 296 293 309 308 326 327 296 275 261 189 205 257 273 284 234 240 232 234 233 236 236 246 242 248 257 234 175 190 213 139 211 207 225 226 204 196 205 237 232 233 230 237
275 285 295 285 291 295 289 305 302 301 296 279 238 251 329 275 230 237 252 271 226 227 212 240 231 236 229 238 236 225 254 171 200 159 183 207 219 224 239 263 260 219 201 226 223 226 250
268 277 292 276 285 288 287 294 303 279 275 263 299 319 337 282 285 294 232 246 260 230 222 211 233 230 237 242 240 234 214 232 196 196 219 201 217 230 237 233 244 255 213 216 217 228 236
256 272 284 289 285 283 277 273 276 276 277 302 325 279 264 286 275 250 255 236 248 249 237 228 214 229 236 225 240 254 311 302 212 194 212 195 215 220 232 235 212 242 240 226 215 221 244
256 265 267 276 291 283 283 267 269 246 233 294 312 300 277 264 265 276 256 257 240 250 244 201 240 242 237 340 285 247 269 252 250 193 198 201 212 222 232 229 226 235 246 226 213 231 221
251 267 270 268 277 289 287 271 257 247 213 265 273 268 276 276 274 288 279 265 269 272 260 271 214 358 4 279 239 220 225 228 216 208 193 207 213 220 226 190 199 308 183 171 209 215 228
252 256 268 268 273 281 284 270 240 192 203 257 263 251 264 289 224 299 288 301 274 239 235 248 260 334 297 260 218 209 206 200 203 179 190 210 227 232 239 161 239 189 169 188 172 226 191
257 250 268 277 262 268 275 265 247 240 250 244 265 248 250 259 274 275 280 311 318 286 280 204 216 212 224 241 229 215 213 209 206 191 178 205 210 226 224 244 302 133 88 56 204 109 88
252 245 257 279 267 265 268 258 267 246 235 255 255 234 253 263 276 288 283 291 301 283 293 12 220 205 228 231 241 224 226 210 217 206 193 200 209 222 223 250 214 146 165 205 91 114 115
259 253 252 261 270 274 267 251 255 246 231 248 260 241 243 255 279 315 292 287 287 300 313 299 324 329 353 270 250 8 239 326 220 201 175 223 212 220 276 282 107 169 164 105 131 129 127